Regional Weather Roundup
Issued by NWS

Home | Current Version | Previous Version | Graphics & Text | Print | Product List | Glossary On
Versions: 1 2 3 4 5 6 7 8 9 10 11 12 13 14 15 16 17 18 19 20 21 22 23 24 25 26 27 28 29 30 31 32 33 34 35 36 37 38 39 40 41 42 43 44 45 46 47 48 49 50
901
ASUS43 KDTX 171210
RWRMI
MICHIGAN HOURLY REGIONAL WEATHER ROUNDUP
NATIONAL WEATHER SERVICE DETROIT/PONTIAC MI
800 AM EDT TUE OCT 17 2017

NOTE: "FAIR" INDICATES FEW OR NO CLOUDS BELOW 12,000 FEET WITH NO
SIGNIFICANT WEATHER AND/OR OBSTRUCTION TO VISIBILITY.

MIZ047>049-052>055-059>063-066>070-074>076-081>083-171300-
SOUTHEAST LOWER MICHIGAN

CITY           SKY/WX    TMP DP  RH WIND       PRES   REMARKS
ADRIAN         CLEAR     39  36  89 SW6       30.26S WCI  35
6HR MIN TEMP:  38; 6HR MAX TEMP:  42;

ALMA           CLEAR     44  39  83 S8        30.14F
ANN ARBOR      CLEAR     37  36  96 S5        30.22F WCI  33
BAD AXE        CLEAR     43  38  82 S9        30.14F
CARO           CLEAR     43  37  79 S7        30.15S
DETROIT CITY   CLEAR     46  38  73 SW9       30.23F
6HR MIN TEMP:  45; 6HR MAX TEMP:  49;

DETROIT        PTCLDY    44  38  79 SW12      30.24F
6HR MIN TEMP:  42; 6HR MAX TEMP:  44;

FLINT          CLEAR     46  37  71 SW10      30.18F
6HR MIN TEMP:  43; 6HR MAX TEMP:  47;

GROSSE ILE     CLEAR     46  38  73 W9G16     30.23F
6HR MIN TEMP:  46; 6HR MAX TEMP:  50;

HILLSDALE      CLEAR     43  36  75 S7        30.23S
HOWELL         PTCLDY    45  38  77 SW7       30.20S
6HR MIN TEMP:  43; 6HR MAX TEMP:  45;


CITY           SKY/WX    TMP DP  RH WIND       PRES   REMARKS
JACKSON        CLEAR     47  37  68 S13       30.21F
6HR MIN TEMP:  42; 6HR MAX TEMP:  47;

LAMBERTVILLE   CLEAR     46  38  75 SW7       30.26S
6HR MIN TEMP:  44; 6HR MAX TEMP:  46;

LANSING        CLEAR     46  36  68 SW8       30.18F
6HR MIN TEMP:  43; 6HR MAX TEMP:  46;

LAPEER         FAIR      45  38  76 SW7       30.18F
6HR MIN TEMP:  37; 6HR MAX TEMP:  46;

MASON          CLEAR     47  38  70 SW5       30.19S
MONROE         CLEAR     45  38  75 SW7       30.24F
6HR MIN TEMP:  44; 6HR MAX TEMP:  46;

MT. CLEMENS    PTCLDY    45  40  81 SW9       30.19F
6HR MIN TEMP:  43; 6HR MAX TEMP:  45;

PONTIAC        PTCLDY    44  39  82 SW5       30.20S
6HR MIN TEMP:  39; 6HR MAX TEMP:  45;

PORT HOPE        N/A     47  38  71 VRB6      30.09F
6HR MIN TEMP:  44; 6HR MAX TEMP:  47;

PORT HURON     CLEAR     45  39  81 CALM      30.20S
TRI CITIES     CLEAR     46  40  79 S10       30.14F
6HR MIN TEMP:  43; 6HR MAX TEMP:  46;

MIDLAND        FAIR      44  40  85 S3        30.11F
6HR MIN TEMP:  41; 6HR MAX TEMP:  44;

TROY           CLEAR     43  38  84 SW7       30.23F
SAGINAW HB     CLEAR     45  37  76 S13       30.13F
$$
MIZ043>046-050>051-056>058-064>065-071>073-077>080-171300-
SOUTHWEST LOWER MICHIGAN

CITY           SKY/WX    TMP DP  RH WIND       PRES   REMARKS
BATTLE CREEK   CLEAR     44  39  82 SW10      30.21F
6HR MIN TEMP:  42; 6HR MAX TEMP:  45;

BENTON HARBOR  CLEAR     47  37  68 S8        30.21S
6HR MIN TEMP:  41; 6HR MAX TEMP:  47;

BIG RAPIDS     CLEAR     50  43  76 SW8G17    30.08F
6HR MIN TEMP:  38; 6HR MAX TEMP:  50;

COLDWATER      CLEAR     45  38  78 SW8       30.23F
6HR MIN TEMP:  43; 6HR MAX TEMP:  46;

FREMONT        FAIR      46  45  93 S5        30.10F
HOLLAND        CLEAR     50  45  83 SW14      30.16F
6HR MIN TEMP:  43; 6HR MAX TEMP:  53;

GRAND RAPIDS   PTCLDY    49  41  74 S13       30.16S
6HR MIN TEMP:  45; 6HR MAX TEMP:  49;

IONIA          FAIR      46  38  73 SW12      30.15F
6HR MIN TEMP:  44; 6HR MAX TEMP:  46;

LUDINGTON      CLEAR     57  46  66 SW14      30.05S
6HR MIN TEMP:  56; 6HR MAX TEMP:  58;

MARSHALL       CLEAR     44  38  77 SW8       30.21F
6HR MIN TEMP:  44; 6HR MAX TEMP:  45;

MOUNT PLEASANT CLEAR     49  42  76 SW7       30.10F
6HR MIN TEMP:  44; 6HR MAX TEMP:  49;

MUSKEGON       PTCLDY    59  47  64 SW18G29   30.12F
6HR MIN TEMP:  58; 6HR MAX TEMP:  59;

SOUTH HAVEN    CLEAR     49  39  69 S8        30.19S
$$
MIZ016>042-171300-
NORTHERN LOWER MICHIGAN

CITY           SKY/WX    TMP DP  RH WIND       PRES   REMARKS
ALPENA         CLEAR     46  40  79 S7        29.99F
6HR MIN TEMP:  42; 6HR MAX TEMP:  47;

BEAVER ISLAND  CLEAR     57  45  64 SW16G24   29.95S
6HR MIN TEMP:  57; 6HR MAX TEMP:  59;

BELLAIRE       CLEAR     50  43  75 S5        30.01S
6HR MIN TEMP:  47; 6HR MAX TEMP:  51;

CADILLAC       CLEAR     49  42  77 SW8       30.05R
CHARLEVOIX     CLEAR     54  46  74 S12G17    29.99F
FRANKFORT      CLEAR     58  47  65 SW9       30.01F
GAYLORD        CLEAR     47  38  71 SW15      30.00S
6HR MIN TEMP:  43; 6HR MAX TEMP:  47;

GRAYLING       CLEAR     48  39  73 SW8G17    30.03R
6HR MIN TEMP:  41; 6HR MAX TEMP:  48;

HARBOR SPRINGS CLEAR     53  44  72 SW8G17    29.96F
HOUGHTON LAKE  CLEAR     48  41  76 SW12G21   30.04F
6HR MIN TEMP:  44; 6HR MAX TEMP:  48;

MANISTEE       CLEAR     41  40  96 E3        30.03F
OSCODA         CLEAR     43  38  82 SW15G21   30.06S
6HR MIN TEMP:  37; 6HR MAX TEMP:  44;

PELLSTON       CLEAR     53  44  71 SW13G18   29.95
6HR MIN TEMP:  48; 6HR MAX TEMP:  54;

ROGERS CITY    CLEAR     47  40  76 SW10      29.97S
TRAVERSE CITY  CLEAR     53  42  66 SW9       30.00S
6HR MIN TEMP:  47; 6HR MAX TEMP:  54;

$$
MIZ007>008-015-171300-
EASTERN UPPER MICHIGAN

CITY           SKY/WX    TMP DP  RH WIND       PRES   REMARKS
KINROSS        CLEAR     51  47  86 SW7       29.91S
6HR MIN TEMP:  46; 6HR MAX TEMP:  52;

MACKINAC ISLAN CLEAR     56  46  69 SW14G25   29.93S
6HR MIN TEMP:  50; 6HR MAX TEMP:  56;

NEWBERRY       CLEAR     49  39  68 SW12G17   29.91R
6HR MIN TEMP:  49; 6HR MAX TEMP:  53;

S. S. MARIE    CLEAR     50  47  89 SW8       29.89S
6HR MIN TEMP:  44; 6HR MAX TEMP:  51;

MUNISING         N/A     44  38  79 SE3       29.90S
6HR MIN TEMP:  44; 6HR MAX TEMP:  51;

$$
MIZ004>006-011>014-085-171300-
CENTRAL UPPER MICHIGAN

CITY           SKY/WX    TMP DP  RH WIND       PRES   REMARKS
MANISTIQUE     PTCLDY    49  34  56 W6        29.93R
6HR MIN TEMP:  48; 6HR MAX TEMP:  55;

ESCANABA       CLOUDY    44  38  79 W8        29.94R
6HR MIN TEMP:  44; 6HR MAX TEMP:  52;

MENOMINEE      PTCLDY    47  38  71 W6        29.99R
6HR MIN TEMP:  47; 6HR MAX TEMP:  50;

SAWYER-GWINN   CLEAR     43  36  75 W5        29.92R
$$
MIZ001>003-009>011-084-171300-
WESTERN UPPER MICHIGAN

CITY           SKY/WX    TMP DP  RH WIND       PRES   REMARKS
IRON MOUNTAIN  CLOUDY    48  36  63 W9        29.95
6HR MIN TEMP:  39; 6HR MAX TEMP:  50;

HOUGHTON       CLOUDY    51  40  65 W15       29.89R
6HR MIN TEMP:  49; 6HR MAX TEMP:  56;

COPPER HARBOR    N/A     54  42  64 W8        29.87R
6HR MIN TEMP:  51; 6HR MAX TEMP:  58;

IRONWOOD       PTCLDY    44  37  76 SW7       29.96R
6HR MIN TEMP:  44; 6HR MAX TEMP:  53;

$$

ABBREVIATIONS USED IN REMARKS
   TC - TEMPERATURE IN CELSIUS
  WCI - WIND CHILL INDEX
   HX - HEAT INDEX
  VSB - VISIBILITY





USA.gov is the U.S. government's official web portal to all federal, state and local government web resources and services.